الصفحة الرئيسية
METAR-TAF:

METAR-TAF

مطار :

كولورادو سبرينغس, كولورادو, الولايات المتحدة

دائرة عرض: 38-56-45N, خط طول: 104-34-12W, ارتفاع: 2095 متر

مراقبة الطقس الحالي

تاريخ ووقت الإصدار 33 دقيقة قبل الساعة 18:15UTC
ريح 7 عقدة من الشمال الغربي
درجة الحرارة 14°درجة مئوية
الرطوبة 9%
ضغط 1019 hPa
الرؤية: 16.1 كم
سماء صافية

METAR: KFLY 171815Z AUTO 31007KT 10SM CLR 14/M18 A3010 RMK AO2 T01381179

زمن: 11:48 (18:48 UTC)


TAF: مفقودة

أرصاد الطقس والتوقعات من أكثر من 4000 مطار (تقارير الطقس للمطار METAR والتنبؤ بالطقس بالمطارTAF).

المحطات المتاحة هي النقط الصفراء والحمراء على الخريطة.

حرك المؤشر فوق النقطة لمعرفة اسم المحطة.

ثم انقر لمعرفة أرصاد وتوقعات الطقس.

لتغيير الخارطة: اضغط على الأزرار الخضراء مع رمز الصليب الأسود للتكبير. على الزر الأخضر مع شرطة للتصغير، أو على الأسهم الخضراء للخرائط المجاورة.


METAR-TAF: